Lid_Strength_Index
2 2 2 2 2 3 3 3 2 3 3 3 3 2 2 1 1 3 5 4 4 2 2 4 4 5 6 8 8 9 13 16 14 12 11 10 12 9 8 9 9 7 7 6 3
2 2 1 1 1 1 2 2 2 2 2 2 2 2 2 2 4 5 2 1 1 2 6 6 7 7 10 9 9 11 14 13 11 11 12 11 11 10 10 10 10 8 5 4 4
2 2 2 2 1 1 1 2 2 2 2 2 2 2 2 3 6 7 2 2 1 0 6 7 6 8 11 10 11 11 13 12 11 9 10 11 10 10 11 12 10 9 7 5 5
2 2 2 2 1 1 1 1 1 1 2 2 1 2 1 4 14 5 2 1 1 2 6 9 10 11 12 12 10 13 10 10 9 9 10 11 11 11 11 10 9 8 7 6 5
1 2 2 2 1 1 1 1 1 1 1 1 1 1 4 7 6 3 0 1 3 4 8 11 11 11 12 12 11 13 11 9 9 9 10 10 11 12 11 9 9 7 6 6 5
1 1 2 2 2 1 1 1 1 1 1 1 2 2 6 12 3 2 2 3 4 6 9 10 11 10 11 11 12 11 11 11 10 10 10 11 11 11 11 9 9 8 7 6 6
0 1 1 1 1 1 1 2 2 1 1 1 2 3 7 9 4 4 2 3 3 4 7 8 9 11 11 13 11 12 14 13 12 11 11 10 13 12 9 9 9 10 9 7 6
0 1 1 1 1 2 1 2 2 1 1 1 2 5 10 4 4 4 4 3 3 3 4 4 6 9 11 11 12 14 15 17 13 12 11 12 16 12 9 11 10 10 9 9 8
1 1 1 1 1 2 2 2 2 1 2 1 4 7 11 3 6 4 4 5 4 4 4 3 5 9 11 14 17 16 20 18 16 12 12 13 16 12 9 9 11 10 10 10 9
0 1 1 1 1 1 2 2 2 2 2 2 4 8 7 9 6 5 4 4 5 4 5 7 8 12 13 15 20 19 19 17 17 14 13 14 15 13 11 10 11 11 10 10 9
0 0 0 1 1 2 2 4 8 8 7 9 8 9 7 6 5 6 4 5 6 7 10 9 12 14 13 12 12 14 16 18 15 13 14 15 15 13 11 11 11 11 10 10 9
0 0 0 0 1 1 3 7 8 8 11 7 7 7 6 5 8 6 4 9 9 12 10 11 13 11 10 11 12 13 15 16 14 13 14 15 16 14 12 12 11 11 11 10 9
-0 -0 -0 0 0 2 4 6 3 3 12 9 7 7 7 6 9 9 6 8 10 12 12 13 13 10 10 11 12 13 14 14 14 12 12 15 17 15 13 12 11 10 10 9 9
0 -1 -1 -1 1 3 5 3 2 2 13 13 9 8 7 7 10 6 6 7 9 12 11 12 10 11 12 12 11 14 11 12 12 13 17 13 20 16 14 13 13 11 10 10 10
-0 -1 -1 -1 2 4 3 1 1 4 21 12 10 4 6 9 9 9 5 8 11 10 10 14 12 12 12 12 10 12 10 11 12 14 15 15 19 18 15 15 13 12 11 10 10
1 -0 -1 1 2 1 0 0 3 13 20 12 9 10 10 9 9 8 8 7 7 9 9 11 10 10 11 9 9 9 11 11 12 13 18 16 16 19 16 16 14 13 12 11 11
-0 1 0 0 5 1 1 4 14 18 10 14 12 10 11 11 10 10 11 11 13 15 15 12 11 10 9 12 10 10 13 18 20 19 20 15 16 17 14 13 13 12 13 12 11
0 0 0 0 2 1 3 10 17 14 14 9 10 10 12 10 10 10 11 13 10 12 15 16 19 12 9 11 12 12 12 18 22 20 19 14 17 16 12 10 11 12 12 12 12
1 2 2 2 1 1 7 15 16 14 11 11 10 13 13 11 11 11 12 13 10 10 15 16 15 10 9 8 9 12 15 11 16 18 18 16 15 12 12 12 12 12 12 12 12
4 5 5 2 1 4 10 13 12 9 9 10 13 13 17 13 13 12 13 10 10 9 8 12 16 11 10 9 8 10 9 16 15 21 22 17 18 17 14 12 11 11 11 12 12
4 8 5 1 2 8 13 14 13 8 8 10 11 14 13 14 13 13 13 10 9 9 8 10 13 13 10 12 13 12 13 13 13 15 19 20 18 13 13 12 11 10 10 11 12
7 10 3 2 10 9 13 13 8 9 8 8 9 10 12 12 13 13 13 10 8 8 12 9 12 16 14 10 10 10 12 12 17 17 16 16 16 12 12 10 10 9 8 9 10
8 8 3 4 13 12 11 14 10 10 10 10 10 9 10 12 16 12 11 8 7 9 11 10 14 17 18 14 12 14 12 12 12 13 16 18 16 9 9 10 10 10 10 10 9
7 11 8 7 9 11 14 13 14 9 9 8 9 8 10 12 12 15 12 10 8 8 7 8 13 15 17 15 13 15 13 12 13 17 17 15 13 11 11 9 10 10 10 10 10
7 10 9 12 12 11 13 13 14 13 9 8 11 11 12 16 14 15 12 11 9 7 8 10 15 13 13 12 12 13 12 12 15 13 16 14 14 10 11 10 8 10 10 10 9
9 10 12 10 10 12 10 16 13 11 11 11 12 11 11 14 11 14 11 11 11 9 10 9 14 17 20 12 13 14 12 12 12 13 13 13 14 9 8 9 10 9 9 9 9
6 6 9 9 11 13 12 12 11 9 9 8 9 10 12 10 8 8 8 8 9 10 11 12 13 18 22 17 17 17 14 12 12 11 11 15 12 9 9 9 9 8 9 9 9